Other Surface Observations
Issued by NWS

Home | Current Version | Previous Version | Text Only | Print | Product List | Glossary On
Versions: 1 2 3 4 5 6 7 8 9 10 11 12 13 14 15 16 17 18 19 20 21 22 23 24 25 26 27 28 29 30 31 32 33 34 35 36 37 38 39 40 41 42 43 44 45 46 47 48 49 50
403
SXUS52 KTAE 200119
OSOTAE
OSOTAE
North Florida/South Alabama/Southwest Georgia Weather Roundup
National Weather Service Tallahassee Florida
900 PM EDT TUE SEP 19 2017

Note: "fair" indicates few or no clouds below 12,000 feet with no
significant weather and/or obstructions to visibility.

!FLZ017-115-028-034-025-200200
...North Florida...

CITY           SKY/WX    TMP DP  RH WIND       PRES   REMARKS
TALLAHASSEE    PTCLDY    79  74  84 CALM      29.96R
APALACHICOLA   CLOUDY    82  76  81 W5        29.96R
PERRY          CLEAR     78  73  85 CALM      29.97R
CROSS CITY     CLEAR     76  71  82 CALM      30.01R
JACKSONVILLE   PTCLDY    76  71  85 SE5       29.97R
$$

!FLZ112-006-005-002-011-200200
...Florida Panhandle...

CITY           SKY/WX    TMP DP  RH WIND       PRES   REMARKS
MARIANNA       CLOUDY    82  72  71 NW12      29.95R THUNDER
BONIFAY        NOT AVBL
PANAMA CITY NW FAIR      79  73  82 SW3       29.94R
TYNDALL AFB    CLEAR     81  74  79 W6        29.96R
TYND DRONE APT MOCLDY    81  75  83 W5        29.96R
DE FUNIAK SPR  FAIR      76  73  92 W3        29.96S
EGLIN AFB      PTCLDY    82  74  78 W5        29.94R
DESTIN         CLEAR     85  75  72 W3        29.94S HX  93
HURLBURT       CLEAR     82  69  65 W7        29.93S
CRESTVIEW      CLEAR     77  74  90 CALM      29.96S
PENSACOLA      MOCLDY    84  75  74 W6        29.95R HX  92
$$

!ALZ063-066-200200
...South Alabama...

CITY           SKY/WX    TMP DP  RH WIND       PRES   REMARKS
DOTHAN         CLOUDY    77  73  87 SW12G17   29.99R
OZARK CAIRNS   PTCLDY    76  73  90 SE3       29.95R
FT RUCKER HELI PTCLDY    78  74  86 CALM      29.94R
RUCKER HELI 3  CLOUDY    80  74  81 S9        29.94R
RUCKER HELI 2  FAIR      77  73  86 S3        29.94S
FLORALA APT    NOT AVBL
ANDALUSIA      PTCLDY    83  74  74 SW6       29.94S
TROY           LGT RAIN  75  73  93 N7        29.99R
EUFALA         MOCLDY    81  72  74 CALM      29.95R
MOBILE         PTCLDY    77  72  84 SW3       29.96R
$$

!GAZ120>161-200200
...Southwest and South Central Georgia...

CITY           SKY/WX    TMP DP  RH WIND       PRES   REMARKS
THOMASVILLE    MOCLDY    79  75  89 CALM      29.97R
BAINBRIDGE     MOCLDY    81  77  89 W3        29.95R
MOODY AFB      CLEAR     76  72  86 CALM      29.95R
VALDOSTA       CLEAR     75  70  84 CALM      29.95R
MOULTRIE       CLEAR     79  72  78 CALM      29.97R
BLAKELY        PTCLDY    79  73  83 CALM      29.95R THUNDER
ALBANY         PTCLDY    79  72  79 SW3       29.97R
TIFTON         FAIR      75  72  90 CALM      29.96S
FITZGERALD     FAIR      74  73  95 CALM      29.99R
CORDELE        FAIR      80  73  80 CALM      29.97S
AMERICUS       FAIR      73  70  88 CALM      29.98S
HOMERVILLE     FAIR      77  72  83 CALM      29.97R
$$

!GMZ750-755-770-775-200200
...Coastal and Buoy Obs...

STATION/POSITION TIME  TEMP    WIND        PRES    VSBY  WAVE
                       AIR SEA DIR/SP/G                  HT/PER
                 (UTC) (F)     (DEG/KT/KT) (MB)    (MI)  (FT/S)
KEATON BEACH     0100   83     260/  7/  8 1014.4R
CEDAR KEY        0100   82     320/  4/  5 1014.7R
C TOWER          0100   81                 1015.2R
APALACHICOLA BUO 0050   81 83   10/  2/  4 1014.5R         1
PANAMA CITY BUOY 0050   82 84  240/  2/  2 1014.5R         0
MOBILE BUOY      0100   83 84  200/  4/  8 1014.4
ORANGE BCH AL BU 0050   82 84  240/  8/ 10 1013.9R         1
$$




USA.gov is the U.S. government's official web portal to all federal, state and local government web resources and services.